Regional Weather Roundup
Issued by NWS

Home | Current Version | Previous Version | Graphics & Text | Print | Product List | Glossary Off
Versions: 1 2 3 4 5 6 7 8 9 10 11 12 13 14 15 16 17 18 19 20 21 22 23 24 25 26 27 28 29 30 31 32 33 34 35 36 37 38 39 40 41 42 43 44 45 46 47 48 49 50

000
ASUS43 KTOP 240108
RWRKS

WEATHER ROUNDUP FOR KANSAS
NATIONAL WEATHER SERVICE GOODLAND KS
700 PM CST THU FEB 23 2017

NOTE:  "FAIR" INDICATES FEW OR NO CLOUDS BELOW 12,000 FEET WITH NO
SIGNIFICANT WEATHER AND/OR OBSTRUCTIONS TO VISIBILITY.

KSZ001>006-013>018-027>032-041>047-240200-
NORTHWEST KANSAS

CITY           SKY/WX    TMP DP  RH WIND       PRES   REMARKS
GOODLAND       CLOUDY    28  27  96 N20G30    29.67R WCI  15
HAYS           CLOUDY    37  32  82 N20G28    29.58R WCI  27
HILL CITY      CLOUDY    34  32  92 N18G24    29.65R WCI  23
RUSSELL        CLOUDY    37  33  85 N29G36    29.54R WCI  25
$$

KSZ061>065-074>080-084>089-240200-
SOUTHWEST KANSAS

CITY           SKY/WX    TMP DP  RH WIND       PRES   REMARKS
DODGE CITY     MOCLDY    37  32  82 N28G33    29.53R WCI  25
ELKHART          N/A     44  28  53 N14         N/A
GARDEN CITY    CLOUDY    36  31  82 N28G36    29.58R WCI  23
GREAT BEND     CLOUDY    40  33  76 N30G37    29.51R WCI  28
LIBERAL        PTCLDY    43  27  52 N18       29.55R
PRATT          CLEAR     44  34  68 NW33G45   29.46R
$$

KSZ066>073-081>083-090>101-240200-
SOUTHEAST KANSAS

CITY           SKY/WX    TMP DP  RH WIND       PRES   REMARKS
CHANUTE        CLEAR     67  46  47 S8        29.35R
COFFEYVILLE    CLEAR     71  46  40 S7        29.35R
HUTCHINSON     CLEAR     51  41  68 N26G39    29.37R
MEDICINE LODGE   N/A     59  40  49 N35G47    29.36R
NEWTON         CLEAR     54  44  69 N20G28    29.35R
PARSONS        CLEAR     73  46  38 S8        29.36R
WICHITA INTL   PTCLDY    62  49  62 S5        29.30R
WICHITA JABRA  CLEAR     65  49  56 S8        29.30S
WICHITA MCCONL CLEAR     66  47  50 S9        29.30R
WINFIELD       CLEAR     71  47  42 S10       29.33R
$$

KSZ007>012-019>026-033>040-048>060-102>105-240200-
NORTHEAST KANSAS

CITY           SKY/WX    TMP DP  RH WIND       PRES   REMARKS
CONCORDIA      CLOUDY    39  37  92 N22G30    29.54R WCI  29
EMPORIA        CLEAR     59  49  69 NE13      29.35R HAZE
LAWRENCE       CLEAR     53  46  77 N9        29.43R
MANHATTAN      CLEAR     47  41  80 NE15      29.43R
MARYSVILLE     CLOUDY    43  37  81 NE15G23   29.50R
OLATHE IND     CLEAR     54  46  74 NE14G20   29.41S
OLATHE EXE     CLEAR     52  46  80 NE16      29.40S
SALINA         MOCLDY    46  37  71 N24G30    29.47R
TOPEKA BILLARD CLEAR     54  47  77 NE14      29.40F
TOPEKA FORBES  CLEAR     56  46  69 NE13      29.39F
$$



USA.gov is the U.S. government's official web portal to all federal, state and local government web resources and services.